This is the latest recevied weather packets stored in our database for station/object RN1M-13. If no packets are shown the sender has not sent any weather packets the latest 10 day(s).
| Time | Temp. | Humidity | Pressure | Rain* | Wind** | Luminosity | Snow |
|---|---|---|---|---|---|---|---|
| 1777494856 | 3.89° C | 100% | 1021.3 hPa | - | - | - | - |
| 1777493956 | 3.89° C | 100% | 1021.4 hPa | - | - | - | - |
| 1777493058 | 3.89° C | 100% | 1021.5 hPa | - | - | - | - |
| 1777492161 | 4.44° C | 100% | 1021.5 hPa | - | - | - | - |
| 1777491261 | 5° C | 100% | 1021.5 hPa | - | - | - | - |
| 1777490360 | 4.44° C | 100% | 1021.4 hPa | - | - | - | - |
| 1777489461 | 4.44° C | 100% | 1021.4 hPa | - | - | - | - |
| 1777488560 | 4.44° C | 100% | 1021.4 hPa | - | - | - | - |
| 1777487660 | 5° C | 100% | 1021.4 hPa | - | - | - | - |
| 1777485860 | 5° C | 98% | 1021.4 hPa | - | - | - | - |
| 1777484962 | 5° C | 93% | 1021.4 hPa | - | - | - | - |
| 1777484060 | 5° C | 100% | 1021.4 hPa | - | - | - | - |
| 1777483160 | 5° C | 100% | 1021.4 hPa | - | - | - | - |
| 1777482262 | 4.44° C | 100% | 1021.4 hPa | - | - | - | - |
| 1777481366 | 4.44° C | 100% | 1021.4 hPa | - | - | - | - |
| 1777480466 | 5° C | 100% | 1021.4 hPa | - | - | - | - |
| 1777479566 | 5° C | 100% | 1021.3 hPa | - | - | - | - |
| 1777478666 | 5° C | 100% | 1021.4 hPa | - | - | - | - |
| 1777477766 | 5° C | 95% | 1021.3 hPa | - | - | - | - |
| 1777476866 | 5.56° C | 91% | 1021.3 hPa | - | - | - | - |
| 1777475966 | 5.56° C | 79% | 1021.2 hPa | - | - | - | - |
| 1777475066 | 6.67° C | 92% | 1021.2 hPa | - | - | - | - |
| 1777474166 | 6.11° C | 99% | 1021.2 hPa | - | - | - | - |
| 1777473266 | 5.56° C | 82% | 1021.2 hPa | - | - | - | - |
| 1777472366 | 6.11° C | 71% | 1021.1 hPa | - | - | - | - |
* Rain since midnight (hover to see other rain measurements)
** Current wind speed in m/s (hover to see current wind gust speed)